Total_Precipitation_Accumulation
0.28 0.35 0.34 0.24 0.17 0.15 0.21 0.26 0.29 0.23 0.19 0.27 0.40 0.46 0.38 0.38 0.41 0.41 0.51 0.50 0.44 0.39 0.33 0.34 0.36 0.37 0.42 0.50 0.56 0.58 0.60 0.65 0.76 0.90 1.07 1.25 1.42 1.56
0.34 0.36 0.37 0.35 0.32 0.24 0.23 0.26 0.30 0.30 0.27 0.25 0.39 0.47 0.50 0.41 0.44 0.48 0.50 0.47 0.41 0.37 0.31 0.28 0.30 0.32 0.33 0.35 0.40 0.46 0.47 0.46 0.49 0.56 0.63 0.71 0.79 0.92
0.58 0.51 0.45 0.45 0.44 0.38 0.34 0.30 0.30 0.34 0.38 0.39 0.48 0.60 0.63 0.55 0.55 0.52 0.49 0.49 0.40 0.37 0.34 0.31 0.29 0.28 0.31 0.31 0.32 0.33 0.37 0.38 0.38 0.38 0.41 0.46 0.48 0.51
0.71 0.74 0.65 0.58 0.53 0.45 0.40 0.37 0.36 0.40 0.45 0.54 0.60 0.67 0.69 0.67 0.63 0.50 0.41 0.39 0.43 0.41 0.36 0.34 0.33 0.31 0.28 0.27 0.27 0.26 0.28 0.30 0.32 0.31 0.31 0.33 0.38 0.40
0.49 0.69 0.79 0.75 0.62 0.55 0.48 0.42 0.41 0.41 0.44 0.49 0.59 0.75 0.86 0.84 0.63 0.41 0.35 0.38 0.38 0.47 0.44 0.35 0.32 0.32 0.29 0.26 0.24 0.22 0.22 0.24 0.26 0.29 0.28 0.27 0.28 0.29
0.31 0.41 0.58 0.74 0.72 0.65 0.57 0.51 0.50 0.52 0.53 0.54 0.61 0.78 0.95 1.00 0.77 0.49 0.39 0.37 0.36 0.33 0.35 0.32 0.30 0.29 0.28 0.25 0.23 0.22 0.22 0.23 0.25 0.25 0.27 0.27 0.25 0.23
0.31 0.31 0.35 0.49 0.64 0.70 0.64 0.60 0.61 0.61 0.62 0.60 0.64 0.80 0.95 1.04 0.81 0.59 0.45 0.41 0.39 0.36 0.31 0.26 0.24 0.22 0.23 0.25 0.25 0.23 0.21 0.22 0.24 0.26 0.27 0.26 0.25 0.23
0.47 0.44 0.41 0.40 0.45 0.56 0.64 0.66 0.66 0.64 0.64 0.64 0.66 0.79 0.90 0.95 0.99 0.81 0.60 0.44 0.36 0.35 0.36 0.33 0.31 0.29 0.24 0.21 0.25 0.25 0.24 0.22 0.21 0.23 0.25 0.27 0.26 0.24
0.61 0.61 0.46 0.34 0.41 0.46 0.55 0.58 0.58 0.55 0.55 0.60 0.65 0.74 1.00 1.16 1.27 1.00 0.80 0.68 0.53 0.47 0.43 0.38 0.39 0.35 0.30 0.27 0.33 0.29 0.26 0.25 0.22 0.20 0.21 0.22 0.25 0.26
0.58 0.66 0.61 0.51 0.48 0.50 0.49 0.46 0.45 0.43 0.41 0.42 0.49 0.65 0.90 1.25 1.44 1.41 1.29 1.08 0.90 0.71 0.55 0.44 0.38 0.34 0.33 0.29 0.34 0.32 0.29 0.28 0.27 0.26 0.22 0.21 0.23 0.25
0.51 0.56 0.60 0.56 0.47 0.39 0.42 0.38 0.35 0.36 0.33 0.34 0.39 0.56 0.74 1.00 1.35 1.51 1.44 1.21 0.98 0.73 0.54 0.42 0.35 0.32 0.29 0.27 0.29 0.33 0.31 0.29 0.29 0.30 0.30 0.27 0.25 0.28
0.55 0.61 0.65 0.59 0.46 0.34 0.38 0.42 0.36 0.32 0.34 0.34 0.36 0.42 0.55 0.73 1.03 1.20 1.16 1.08 0.91 0.70 0.48 0.41 0.34 0.37 0.32 0.26 0.22 0.23 0.25 0.29 0.30 0.31 0.31 0.32 0.32 0.24
0.47 0.50 0.60 0.54 0.42 0.30 0.32 0.37 0.32 0.33 0.40 0.40 0.41 0.46 0.56 0.69 0.81 1.02 1.07 0.96 0.83 0.64 0.46 0.45 0.38 0.36 0.33 0.26 0.23 0.21 0.19 0.19 0.22 0.27 0.31 0.33 0.34 0.30
0.49 0.53 0.60 0.58 0.44 0.36 0.31 0.30 0.25 0.23 0.31 0.37 0.37 0.38 0.45 0.55 0.72 0.92 1.08 1.04 0.91 0.78 0.67 0.62 0.54 0.45 0.36 0.28 0.22 0.20 0.20 0.20 0.20 0.21 0.24 0.32 0.33 0.36
0.55 0.70 0.74 0.70 0.60 0.49 0.42 0.40 0.31 0.26 0.29 0.32 0.33 0.31 0.35 0.47 0.71 0.96 1.14 1.25 1.15 0.97 0.86 0.75 0.66 0.60 0.54 0.37 0.24 0.21 0.21 0.22 0.22 0.22 0.23 0.25 0.27 0.30
0.47 0.66 0.79 0.85 0.81 0.70 0.61 0.55 0.41 0.35 0.35 0.35 0.36 0.40 0.47 0.59 0.75 0.85 0.98 1.12 1.16 1.03 0.90 0.82 0.74 0.73 0.65 0.50 0.36 0.25 0.20 0.21 0.23 0.25 0.27 0.28 0.29 0.31
0.39 0.66 0.87 1.01 1.05 1.03 0.91 0.81 0.70 0.58 0.50 0.49 0.52 0.54 0.57 0.64 0.71 0.83 0.97 1.02 0.99 0.84 0.79 0.80 0.81 0.80 0.77 0.70 0.52 0.33 0.25 0.20 0.19 0.26 0.33 0.33 0.31 0.29
0.37 0.63 0.86 1.04 1.11 1.22 1.23 1.15 0.99 0.84 0.75 0.72 0.70 0.69 0.69 0.68 0.73 0.86 1.01 1.05 0.96 0.83 0.73 0.69 0.79 0.87 0.85 0.73 0.58 0.41 0.29 0.25 0.23 0.27 0.34 0.36 0.30 0.27
0.40 0.57 0.68 0.84 1.01 1.20 1.29 1.28 1.12 0.99 1.01 0.99 0.90 0.84 0.85 0.82 0.80 0.87 1.00 1.07 1.06 0.95 0.86 0.78 0.79 0.82 0.75 0.56 0.41 0.39 0.37 0.31 0.32 0.32 0.33 0.34 0.29 0.25
0.38 0.47 0.54 0.65 0.84 1.09 1.25 1.31 1.24 1.13 1.12 1.14 1.10 1.03 1.01 0.95 0.88 0.84 0.95 1.04 1.07 1.04 0.98 0.89 0.75 0.69 0.64 0.54 0.48 0.42 0.39 0.46 0.45 0.40 0.36 0.37 0.36 0.38
0.38 0.44 0.48 0.59 0.74 0.94 1.14 1.29 1.32 1.25 1.19 1.24 1.24 1.14 1.10 1.04 0.92 0.85 0.89 1.00 1.08 1.09 0.97 0.83 0.72 0.75 0.91 0.98 0.80 0.56 0.48 0.47 0.55 0.54 0.53 0.55 0.50 0.48
0.52 0.53 0.57 0.66 0.80 1.02 1.21 1.30 1.34 1.31 1.26 1.29 1.28 1.19 1.13 1.10 0.99 0.94 0.95 0.99 1.00 1.01 0.99 0.98 1.08 1.11 1.09 1.01 0.78 0.60 0.58 0.59 0.63 0.68 0.64 0.59 0.53 0.45
0.58 0.57 0.59 0.65 0.81 1.02 1.17 1.29 1.33 1.34 1.32 1.29 1.25 1.18 1.12 1.11 1.08 1.04 0.99 0.99 1.03 1.07 1.18 1.22 1.21 1.18 1.06 0.99 0.91 0.81 0.74 0.75 0.79 0.75 0.60 0.52 0.47 0.44